Location: New Frontier Mobile Home Park
(32.8448°N, 116.9675°W)
Time: 23:16:01
(UTC+00:00)

CENTAUR R/B - Pass Details

Date: 14 July 2020
Orbit: 760 x 1428 km, 63.5° (Epoch: 01 August)

Event Time Altitude Azimuth Distance (km) Brightness Sun altitude
Exits shadow 10:17:34 15° 139° (SE) 2,122 4.1 -25.7°
Maximum altitude 10:20:07 20° 106° (ESE) 1,922 4.2 -25.3°
Drops below altitude 10° 10:24:24 10° 62° (ENE) 2,676 5.7 -24.8°
Sets 10:27:50 0° 46° (NE) 3,754 7.0 -24.3°
